GW4359 Weather Reports


Display with metric or nautical units.
time (UTC)temp
F
wind
direction
speed
MPH
gust
MPH
rain 1hr
in
rain 24hr
in
rain mn
in
humidity
%
barometer
mb
20260906120135 72 221 1.0 4.0 0.00 0.00 0.00 100 1014.9
20260906114607 72 86 3.0 6.0 0.00 0.00 0.00 100 1015.4
20260906113050 72 192 1.0 5.0 0.00 0.00 0.00 100 1015.3
20260906111551 73 76 1.0 4.0 0.00 0.00 0.00 100 1015.2
20260906110042 73 240 3.0 7.0 0.00 0.00 0.00 100 1015.2
20260906104542 73 302 5.0 10.0 0.00 0.00 0.00 100 1015.9
20260906103044 74 46 0.0 1.0 0.00 0.00 0.00 100 1015.4
20260906101534 74 46 1.0 3.0 0.00 0.00 0.00 100 1015.7
20260906100028 74 65 1.0 5.0 0.00 0.00 0.00 100 1015.6
20260906094520 74 17 2.0 7.0 0.00 0.00 0.00 100 1015.8
20260906093023 74 59 3.0 6.0 0.00 0.00 0.00 100 1015.6
20260906091520 75 56 4.0 6.0 0.00 0.00 0.00 100 1015.5
20260906090008 75 69 0.0 4.0 0.00 0.00 0.00 100 1015.1
20260906084503 76 75 3.0 7.0 0.00 0.00 0.00 100 1015.2
20260906083059 76 124 2.0 10.0 0.00 0.00 0.00 100 1014.8
20260906081557 76 148 6.0 11.0 0.00 0.00 0.00 100 1014.8
20260906080055 76 105 5.0 8.0 0.00 0.00 0.00 100 1015.0
20260906074550 76 103 3.0 9.0 0.00 0.00 0.00 100 1014.9
20260906073040 74 113 5.0 10.0 0.00 0.00 0.00 100 1014.7
20260906071536 73 67 3.0 7.0 0.00 0.00 0.00 100 1014.7
20260906070031 73 108 0.0 2.0 0.00 0.00 0.00 100 1014.4
20260906064528 73 111 0.0 1.0 0.00 0.00 0.00 100 1014.3
20260906063029 73 98 0.0 0.0 0.00 0.00 0.00 100 1014.4
20260906061519 73 93 0.0 0.0 0.00 0.00 0.00 100 1014.2
20260906060013 73 93 0.0 0.0 0.00 0.00 0.00 100 1014.1
20260906054509 74 93 0.0 0.0 0.00 0.00 0.00 100 1014.0
20260906053005 74 92 0.0 0.0 0.00 0.00 0.00 100 1014.1
20260906051601 75 92 0.0 0.0 0.00 0.00 0.00 100 1014.2
20260906050105 75 92 0.0 0.0 0.00 0.00 0.00 100 1014.5
20260906044553 75 92 0.0 0.0 0.00 0.00 0.00 100 1014.6
20260906043047 76 92 0.0 0.0 0.00 0.00 0.00 100 1014.6
20260906041543 76 92 0.0 1.0 0.00 0.00 0.00 100 1014.7
20260906040046 77 92 0.0 1.0 0.00 0.00 0.00 100 1014.7
20260906034546 77 92 0.0 5.0 0.00 0.00 0.00 100 1014.6
20260906033031 77 76 0.0 5.0 0.00 0.00 0.00 100 1014.7
20260906031556 77 17 0.0 0.0 0.00 0.00 0.00 100 1014.6
20260906030022 77 18 0.0 0.0 0.00 0.00 0.00 100 1014.4
20260906024538 77 18 0.0 1.0 0.00 0.00 0.00 100 1014.1
20260906023013 78 18 0.0 0.0 0.00 0.00 0.00 100 1013.9
20260906021509 78 17 0.0 0.0 0.00 0.00 0.00 100 1013.8
20260906020004 78 17 0.0 0.0 0.00 0.00 0.00 100 1013.4
20260906014600 79 18 0.0 0.0 0.00 0.00 0.00 100 1013.3
20260906013103 79 17 0.0 0.0 0.00 0.00 0.00 100 1013.3
20260906011551 80 17 0.0 0.0 0.00 0.00 0.00 100 1013.2
20260906010051 81 17 0.0 0.0 0.00 0.00 0.00 14 1013.0
20260906004544 82 17 0.0 0.0 0.00 0.00 0.00 32 1012.8
20260906003038 85 17 0.0 0.0 0.00 0.00 0.00 52 1012.7
20260906001536 88 17 0.0 0.0 0.00 0.00 0.00 64 1012.6
20260906000029 90 18 0.0 0.0 0.00 0.00 0.00 65 1012.8
20260905234525 92 18 0.0 0.0 0.00 0.00 0.00 64 1012.9
20260905233021 93 18 0.0 1.0 0.00 0.00 0.00 61 1012.9
20260905231516 94 18 0.0 2.0 0.00 0.00 0.00 55 1012.7
20260905230026 94 15 1.0 5.0 0.00 0.00 0.00 55 1012.8
20260905224516 95 31 2.0 5.0 0.00 0.00 0.00 54 1012.6
20260905223003 95 63 3.0 6.0 0.00 0.00 0.00 54 1012.8
20260905221558 95 64 1.0 2.0 0.00 0.00 0.00 53 1012.9
20260905220054 95 35 2.0 5.0 0.00 0.00 0.00 52 1012.9
20260905214552 95 95 3.0 7.0 0.00 0.00 0.00 52 1012.9
20260905213048 95 109 3.0 7.0 0.00 0.00 0.00 53 1013.0
20260905211559 94 24 2.0 7.0 0.00 0.00 0.00 54 1013.1
20260905210050 94 47 0.0 3.0 0.00 0.00 0.00 57 1013.1
20260905204536 95 36 3.0 5.0 0.00 0.00 0.00 55 1013.3
20260905203028 95 330 0.0 4.0 0.00 0.00 0.00 56 1013.4
20260905201532 94 99 1.0 6.0 0.00 0.00 0.00 58 1013.7
20260905200019 95 50 3.0 7.0 0.00 0.00 0.00 57 1013.9
20260905194515 95 63 0.0 5.0 0.00 0.00 0.00 57 1014.2
20260905193010 94 82 4.0 7.0 0.00 0.00 0.00 56 1014.5
20260905191507 93 65 1.0 7.0 0.00 0.00 0.00 59 1014.7
20260905190003 94 285 2.0 8.0 0.00 0.00 0.00 57 1014.9
20260905184558 93 76 4.0 8.0 0.00 0.00 0.00 60 1015.1
20260905183056 93 150 1.0 7.0 0.00 0.00 0.00 59 1015.3
20260905181548 93 319 1.0 10.0 0.00 0.00 0.00 60 1015.3
20260905180052 94 39 3.0 8.0 0.00 0.00 0.00 58 1015.5
20260905174543 93 279 3.0 6.0 0.00 0.00 0.00 59 1015.6
20260905173053 92 60 3.0 7.0 0.00 0.00 0.00 59 1015.7
20260905171532 93 111 5.0 9.0 0.00 0.00 0.00 61 1015.8
20260905170027 92 52 2.0 7.0 0.00 0.00 0.00 62 1016.0
20260905164523 92 301 3.0 7.0 0.00 0.00 0.00 61 1016.3
20260905163018 91 293 4.0 7.0 0.00 0.00 0.00 63 1016.4
20260905161514 91 292 2.0 5.0 0.00 0.00 0.00 64 1016.7
20260905160010 89 322 4.0 6.0 0.00 0.00 0.00 64 1016.9
20260905154505 89 17 3.0 6.0 0.00 0.00 0.00 63 1017.0
20260905153101 88 321 1.0 8.0 0.00 0.00 0.00 61 1017.1
20260905151559 87 344 4.0 5.0 0.00 0.00 0.00 61 1017.1
20260905150052 86 300 3.0 5.0 0.00 0.00 0.00 54 1017.3
20260905144548 85 11 0.0 3.0 0.00 0.00 0.00 47 1017.3
20260905143048 84 74 0.0 3.0 0.00 0.00 0.00 32 1017.4
20260905141539 83 94 0.0 2.0 0.00 0.00 0.00 17 1017.4
20260905140035 82 92 0.0 3.0 0.00 0.00 0.00 100 1017.6
20260905134535 80 96 0.0 2.0 0.00 0.00 0.00 100 1017.6
20260905133025 77 96 0.0 0.0 0.00 0.00 0.00 100 1017.5
20260905131526 75 96 0.0 0.0 0.00 0.00 0.00 100 1017.4
20260905130018 74 94 0.0 0.0 0.00 0.00 0.00 100 1017.6
20260905124517 73 94 0.0 0.0 0.00 0.00 0.00 100 1017.5
20260905123009 71 94 0.0 0.0 0.00 0.00 0.00 100 1017.5
20260905121504 70 94 0.0 0.0 0.00 0.00 0.00 100 1017.4